Location: San Martino di Castrozza
(46.2667°N, 11.8000°E)
Time: 03:59:49
(UTC+00:00)

Cosmos 1953 - Pass Details

Date: 30 July 2021
Orbit: 538 x 556 km, 82.5° (Epoch: 26 September)

Event Time Altitude Azimuth Distance (km) Brightness Sun altitude
Rises 02:37:30 0° 133° (SE) 2,725 5.9 -11.3°
Reaches altitude 10° 02:41:33 10° 93° (E) 1,835 5.7 -10.8°
Maximum altitude 02:42:16 10° 82° (E) 1,809 5.9 -10.7°
Drops below altitude 10° 02:42:57 10° 73° (ENE) 1,834 6.2 -10.6°
Sets 02:47:01 0° 32° (NNE) 2,734 7.5 -10.1°
